Theta_e
319 319 317 311 308 307 307 306 307 306 306 306 306 306 306 306 306 306 306 306 305 306 306 306 306 306 305 305 305 305 305 305 305 305 305 305 305 305 306 306 306 307
321 321 319 312 308 307 307 307 307 306 306 306 306 306 306 306 306 305 306 306 305 306 306 306 305 305 305 305 305 305 305 305 304 304 304 304 304 304 304 304 304 304
323 321 316 310 307 308 307 307 307 306 306 306 306 306 306 306 306 306 306 306 306 306 306 306 306 305 305 305 305 305 305 304 304 304 303 303 303 303 303 303 303 303
322 319 313 309 308 308 307 307 307 307 307 307 306 306 306 306 306 306 306 306 306 306 306 306 306 306 305 305 305 305 305 304 304 303 303 303 303 303 303 303 303 303
322 319 315 312 309 308 307 308 309 310 310 309 307 307 306 306 306 307 307 307 307 306 306 306 306 306 306 306 306 305 305 305 304 304 304 303 304 303 304 304 304 304
322 321 319 316 310 308 308 309 312 315 314 311 308 307 307 307 307 307 307 307 307 307 307 307 307 307 307 306 306 306 306 305 305 305 305 305 304 304 304 305 305 305
322 323 322 318 313 309 307 309 312 315 313 309 307 308 308 308 308 309 309 309 309 309 309 309 309 308 308 308 307 307 307 306 306 306 305 305 305 305 305 305 305 305
322 323 322 320 315 312 309 308 311 313 311 308 307 308 308 308 310 312 314 313 313 313 313 312 312 312 312 311 310 310 309 308 308 308 307 307 306 306 305 305 306 306
322 323 323 320 316 316 314 311 310 311 311 309 308 308 308 310 313 316 318 317 317 317 316 316 316 316 316 315 314 313 312 312 312 312 311 310 309 308 307 307 307 307
322 323 322 318 315 317 318 317 315 312 311 310 309 310 311 313 316 318 319 319 319 318 318 317 317 317 317 317 317 316 316 316 316 316 315 314 313 312 312 310 310 309
322 322 322 319 318 318 319 320 319 313 311 310 310 311 312 314 316 318 319 319 319 319 318 318 317 318 318 318 318 318 317 317 317 318 317 316 316 315 315 314 313 312
323 322 322 322 322 321 319 320 320 317 314 312 312 315 315 315 317 319 319 319 318 317 317 317 317 317 318 318 318 317 317 317 317 318 318 318 318 317 316 316 316 315
324 323 323 323 324 322 320 320 320 319 318 316 314 316 317 318 319 318 317 317 316 315 315 315 315 315 316 317 316 315 315 315 316 316 317 318 318 317 317 317 317 317
325 325 325 324 324 322 319 320 320 320 320 319 316 315 316 318 318 316 314 315 315 315 316 316 316 315 315 316 316 315 315 315 316 316 317 318 318 317 317 318 318 318
325 325 325 324 322 320 320 320 320 320 319 318 316 314 314 315 315 315 315 315 317 317 317 318 317 316 316 316 316 315 316 317 317 318 318 318 318 318 318 318 317 318
324 324 323 321 320 319 319 319 320 320 318 316 315 314 314 314 315 316 316 317 317 317 317 317 316 316 316 315 315 315 316 317 318 319 319 318 318 318 319 318 317 318
323 322 322 321 320 319 319 319 318 318 318 317 316 316 316 317 318 318 318 318 317 316 317 316 316 316 316 315 315 316 316 317 318 318 319 318 319 319 319 318 318 318
321 322 322 321 320 319 319 318 318 318 319 319 318 318 318 319 319 319 318 318 317 317 316 316 316 316 317 317 317 317 317 318 318 318 317 317 317 317 317 317 317 318
321 321 321 320 319 319 319 319 319 319 319 319 319 319 319 318 318 318 318 317 316 316 315 315 316 316 317 317 317 316 316 315 315 314 313 312 312 312 313 313 314 315
318 319 319 319 320 320 319 319 319 320 319 319 318 318 318 318 317 317 316 315 314 313 313 313 314 314 314 314 313 313 312 311 310 309 309 308 308 309 310 310 310 310
312 314 315 317 318 319 318 318 318 318 317 317 316 316 316 315 314 314 313 313 312 311 311 311 311 311 311 310 310 310 310 310 309 309 309 309 310 310 309 309 309 308
308 310 311 312 313 314 314 314 314 313 313 313 313 313 312 311 311 311 310 310 310 309 308 307 306 306 306 306 306 307 307 308 308 308 309 310 310 310 311 311 310 308
307 307 308 308 308 310 311 311 311 310 310 310 310 310 309 309 308 308 307 306 305 304 303 302 301 301 301 301 301 302 302 303 303 304 306 307 308 310 311 311 310 309
306 306 307 306 306 307 308 309 308 308 307 307 307 307 306 306 305 305 304 303 302 302 302 302 301 301 301 301 301 301 300 301 301 301 303 305 306 308 309 310 310 309
306 306 306 306 306 306 306 307 307 306 306 305 304 304 304 304 304 304 304 303 303 303 303 302 302 302 302 302 301 301 301 300 300 300 301 304 306 308 309 309 309 308
306 306 306 306 306 305 305 306 306 306 306 305 305 304 304 305 305 305 304 304 303 303 303 303 303 302 302 302 302 301 301 300 300 301 302 305 307 308 309 309 308 307
Wind_Speed
8 6 6 5 5 4 4 5 5 5 5 6 7 8 7 7 7 7 7 7 7 7 8 9 10 11 11 10 10 9 9 10 10 10 10 10 10 10 10 10 10 9
10 8 7 7 6 5 5 5 5 5 5 5 6 7 7 6 6 6 6 6 6 7 7 8 9 10 11 11 10 9 8 8 9 10 10 9 10 10 10 10 10 10
12 10 9 10 9 8 8 7 6 5 5 4 5 6 6 7 6 6 5 5 5 6 6 7 8 9 10 10 10 10 9 8 8 9 9 9 10 9 9 9 10 10
14 12 11 12 12 11 10 10 8 6 5 4 3 4 5 6 6 6 5 4 4 5 5 6 7 8 9 9 10 10 9 8 8 8 8 8 8 8 8 8 8 9
15 14 12 13 15 13 13 12 10 7 3 1 2 3 4 5 6 6 6 5 4 4 5 6 6 7 7 7 8 8 8 8 7 8 7 7 7 7 8 8 7 8
16 15 12 13 16 16 16 14 11 9 8 7 6 5 4 5 5 5 5 5 4 4 4 4 5 5 6 6 6 6 6 7 7 7 6 6 6 6 6 7 7 7
16 16 13 13 16 18 17 16 13 11 12 12 10 8 7 6 5 4 4 4 3 3 3 3 3 3 4 4 4 5 5 5 5 6 5 5 5 5 5 5 5 5
17 17 15 14 17 18 17 18 16 12 12 14 12 11 9 8 6 4 3 2 2 2 2 2 2 2 2 2 2 2 2 3 4 4 4 4 3 3 3 3 3 3
19 19 17 15 18 19 18 18 17 14 13 14 14 13 11 9 7 5 4 2 2 2 1 1 1 0 0 0 1 1 1 0 1 2 3 3 3 2 2 3 3 3
19 20 19 16 17 19 19 17 16 15 14 15 15 14 12 11 9 7 6 4 4 4 3 3 2 2 2 2 2 2 2 2 2 1 1 0 1 1 1 2 2 3
19 20 20 18 15 17 20 19 16 15 15 16 16 15 14 13 12 10 9 9 8 7 6 6 5 5 6 6 5 4 4 4 4 3 3 3 4 4 3 3 3 3
19 20 20 20 18 17 20 21 19 17 17 16 16 15 16 16 15 12 11 11 11 9 8 9 8 7 8 9 9 9 8 8 8 7 7 7 7 7 6 5 6 6
19 20 21 23 22 18 19 22 20 19 19 17 16 15 16 17 16 15 14 12 12 11 10 11 12 13 14 14 14 14 14 14 13 11 11 11 10 9 8 8 9 11
17 19 19 19 18 15 17 20 19 19 20 19 18 17 18 18 17 17 17 16 15 15 14 14 14 16 18 18 18 17 17 17 16 14 14 14 12 11 10 11 13 14
15 15 14 13 12 12 15 17 17 17 18 19 18 18 19 21 20 19 19 18 17 17 17 17 17 17 19 20 19 18 18 18 18 17 16 15 14 14 14 14 15 16
9 9 8 8 9 11 13 14 15 16 17 18 18 18 18 20 20 19 18 18 19 18 18 19 20 21 21 21 21 19 18 18 18 18 17 16 17 17 17 15 16 16
5 4 3 4 7 9 12 14 15 16 17 18 19 19 18 17 17 17 16 17 18 18 18 18 19 18 17 17 18 17 17 17 16 15 14 14 14 14 14 14 15 16
3 3 4 5 6 7 10 13 15 16 18 18 18 18 17 16 16 16 16 16 16 15 13 11 10 9 8 9 10 10 11 11 10 10 9 9 10 10 11 12 12 13
4 5 6 7 7 8 9 11 12 13 15 16 16 16 15 14 15 15 13 11 10 8 7 5 5 5 5 5 6 6 7 7 8 9 9 10 10 11 11 11 11 11
3 4 5 6 7 8 9 9 9 10 12 13 12 12 11 10 10 10 9 8 8 7 6 5 5 6 6 6 7 7 8 8 9 10 9 9 10 10 11 11 11 12
2 2 1 2 3 4 4 5 6 7 7 8 8 8 8 8 9 9 9 8 7 6 6 7 7 8 8 8 9 9 9 9 9 9 8 8 9 9 10 10 11 11
2 2 2 1 2 3 3 4 5 5 6 7 7 8 8 8 8 8 8 7 7 7 7 7 7 8 8 9 9 10 10 10 10 10 9 9 9 9 9 9 9 10
2 3 3 3 3 3 4 5 6 6 6 7 7 7 8 8 8 8 7 7 6 6 5 5 4 4 5 6 7 8 8 8 9 9 9 9 9 9 8 9 9 10
5 4 4 4 4 4 4 5 6 6 6 7 7 7 8 8 8 7 6 6 6 5 4 4 4 4 5 6 7 9 10 11 11 10 10 10 10 9 9 10 11 11
6 5 5 5 5 5 6 6 6 6 6 6 7 7 8 8 8 6 5 4 4 4 4 5 6 6 7 8 9 10 11 12 12 12 11 10 10 10 10 10 11 12
9 8 8 7 8 8 9 9 9 10 9 8 8 8 8 8 8 6 5 4 4 4 5 6 7 8 9 10 10 10 11 11 10 10 10 10 9 10 10 11 12 12
Wind_Direction
178 153 133 133 145 136 116 105 98 100 102 99 97 96 99 102 99 93 87 84 81 76 72 74 79 82 82 80 79 78 80 84 89 89 89 90 91 91 94 97 99 102
190 170 152 154 162 161 152 136 126 123 109 100 99 101 101 99 97 93 84 81 81 77 71 69 72 75 77 77 75 73 74 81 89 91 91 94 95 94 94 95 98 98
199 181 167 170 174 176 176 161 148 141 119 105 102 102 103 100 97 94 87 80 77 74 71 68 67 71 73 75 75 71 69 73 82 86 90 95 95 94 93 94 96 97
203 191 180 179 179 182 185 172 156 143 116 104 114 109 108 106 100 96 91 83 75 69 67 66 63 64 67 71 75 76 74 72 75 79 81 88 93 94 93 91 93 100
207 199 189 180 179 184 186 176 169 168 154 175 176 145 127 116 107 102 96 88 78 68 62 61 59 58 59 62 67 73 76 73 71 73 72 72 77 82 86 85 84 92
211 208 202 187 182 187 189 184 187 196 204 210 199 178 158 133 120 114 107 99 88 76 68 64 62 58 55 56 58 60 66 69 65 65 66 64 62 63 68 74 74 76
213 213 213 203 191 190 194 195 197 197 196 196 192 187 181 159 144 133 120 116 107 98 90 79 73 69 62 57 57 53 51 54 54 54 56 57 57 52 50 57 61 60
215 213 216 214 201 193 195 199 201 202 198 193 190 191 189 178 168 154 137 135 129 129 129 107 89 75 63 47 46 57 56 53 50 48 47 44 42 42 34 26 29 34
215 214 215 216 208 200 198 201 206 212 210 201 194 192 191 188 186 180 176 188 205 211 210 181 181 183 68 335 309 275 231 151 105 82 62 41 23 17 11 359 356 356
217 216 216 215 209 206 206 208 211 214 212 206 200 196 196 195 196 200 206 219 237 246 251 238 232 246 251 246 245 238 233 234 224 193 143 89 335 306 299 316 321 324
219 219 220 218 216 217 215 213 213 214 209 205 205 206 209 209 209 214 226 239 247 250 252 249 254 269 272 268 259 249 249 246 239 236 238 242 245 239 237 257 272 272
225 227 229 229 234 237 225 214 213 214 211 206 205 208 214 217 218 224 238 249 248 247 251 252 255 265 273 272 266 266 270 263 250 244 250 259 261 256 253 259 263 261
230 234 238 239 243 243 227 215 213 216 218 220 219 219 220 220 221 228 242 252 249 247 256 262 261 264 271 273 269 270 274 271 264 255 255 264 267 268 271 268 264 265
229 233 238 241 241 235 221 215 215 217 224 231 233 231 229 229 230 235 241 247 249 253 263 271 270 270 275 275 268 269 273 272 269 263 261 264 263 264 274 275 268 266
222 226 231 233 228 222 217 216 216 217 222 232 236 235 237 240 242 242 242 246 252 257 261 265 269 274 279 274 264 264 269 269 267 265 262 261 263 270 279 278 271 268
210 216 221 222 216 214 214 215 217 218 222 232 239 241 243 245 247 248 249 252 257 261 263 267 272 273 272 266 258 258 264 265 266 266 265 265 270 277 280 275 267 263
187 198 211 226 225 220 218 219 222 224 228 236 241 242 243 243 246 249 253 256 260 264 268 271 273 268 262 257 254 255 260 263 264 266 268 272 276 281 281 277 273 268
174 200 222 234 235 231 228 228 228 228 231 236 240 243 243 243 246 252 257 258 259 261 262 262 259 253 247 248 251 253 256 259 263 269 276 280 282 284 283 281 279 276
194 210 225 234 235 232 228 227 228 229 231 234 241 247 250 249 249 250 249 242 232 227 225 223 224 224 226 233 241 248 254 260 267 274 279 280 280 280 280 279 279 278
187 206 220 231 234 233 232 229 228 231 230 228 233 239 240 232 222 214 205 195 190 196 207 217 225 227 231 241 247 253 260 266 270 272 273 273 273 273 275 278 280 280
120 132 173 215 228 232 234 226 215 212 208 203 201 199 190 181 176 175 178 186 196 210 222 231 239 242 246 251 253 255 259 262 264 265 266 267 268 270 275 277 280 282
121 128 138 164 203 207 201 196 191 190 188 183 182 178 173 173 177 181 190 201 209 219 230 239 247 251 255 256 256 257 257 257 259 261 261 261 263 267 274 279 286 291
240 204 182 175 184 194 200 202 201 197 192 187 187 188 188 190 193 194 198 204 209 212 217 227 240 253 263 268 271 273 274 275 275 273 270 267 265 266 270 278 288 297
256 230 211 193 178 174 188 201 204 202 199 199 200 199 195 191 190 190 191 193 197 204 212 229 252 271 283 288 290 290 290 289 288 286 283 277 272 270 274 281 289 298
233 227 226 217 206 204 204 206 209 210 207 203 198 192 188 185 185 189 192 193 202 219 241 261 274 283 288 291 293 292 290 288 285 284 281 277 274 274 276 281 289 297
225 232 238 232 226 225 224 223 221 217 214 212 205 199 198 200 204 210 213 212 222 245 266 278 288 294 297 299 303 307 308 302 292 283 277 272 271 273 276 281 288 295